7 * 24
多渠道服务支持
STARLINK-32680是美国SpaceX公司星链星座的一颗低轨通信卫星,于2024年12月23日发射入轨。该卫星属于星链第二代规模组网批次,运行于近地轨道,配备相控阵天线与霍尔推进器,可提供高速卫星互联网服务,支持手机直连、偏远地区联网等应用,是SpaceX星链全球覆盖计划的组成部分,设计服役寿命超过5年。
美国
(US)
| 数据来源 | 国际轨道数据 |
| 星历时间: | 2026-09-04T01:59:36+0800 22小时前 查看轨道信息 |
| 半长轴: | 6861.204km |
| 偏心率: | 0.0001654 |
| 轨道倾角: | 43.002° |
| 近地点辐角 | 278.277° |
| 升交点赤经 | 28.656° |
| 平近点角 | 81.790° |
| 近地点: | 481.932km |
| 远地点: | 484.202km |
| 周期: | 94.267分钟 |
| 每日圈数: | 15.275742 |
| 事件ID | 空间交会对象 | 最接近时刻(TCA) | 交会距离 | 交会风险概率(CRP) | 交会风险指数(CRI) | 操作 |
|---|---|---|---|---|---|---|
| CDM_260907-041705-684406-242321 |
STARLINK-30136
(56844)
STARLINK-32680
(62423) | 2026-09-07T 04:17:51+0000 |
1.452 km
极远距离 | 5.759595E-6 低风险 | 0.5 | |
| CDM_260907-024305-684406-242321 |
STARLINK-30136
(56844)
STARLINK-32680
(62423) | 2026-09-07T 02:43:42+0000 |
1.609 km
极远距离 | 4.154772E-6 低风险 | 0.47 | |
| CDM_260903-103004-014306-242323 |
YAOGAN 21
(40143)
STARLINK-32680
(62423) | 2026-09-03T 10:30:15+0000 |
2.228 km
极远距离 | 1.968897E-6 低风险 | 0.41 | |
| CDM_260904-130905-864506-242321 |
TIANMU-1 11
(58645)
STARLINK-32680
(62423) | 2026-09-04T 13:09:08+0000 |
2.355 km
极远距离 | 1.79654E-6 低风险 | 0.4 |